FW8773 Weather Reports


time (UTC)temp
F
wind
direction
speed
knots
gust
knots
rain 1hr
in
rain 24hr
in
rain mn
in
humidity
%
barometer
mb
20260906203012 90 180 18.2 26.9 0.00 0.02 0.02 50 1008.2
20260906201508 89 165 17.4 26.1 0.00 0.02 0.02 50 1008.3
20260906200007 89 153 18.2 24.3 0.00 0.02 0.02 51 1008.5
20260906194513 89 157 22.6 28.7 0.00 0.02 0.02 50 1008.7
20260906193005 89 178 18.2 24.3 0.00 0.02 0.02 49 1008.8
20260906191507 89 166 20.0 30.4 0.00 0.02 0.02 48 1008.8
20260906190004 89 184 19.1 26.9 0.00 0.02 0.02 49 1008.9
20260906184608 87 176 16.5 28.7 0.00 0.02 0.02 54 1009.1
20260906183102 87 167 19.1 26.9 0.00 0.02 0.02 55 1009.0
20260906181559 85 183 17.4 24.3 0.00 0.02 0.02 56 1009.4
20260906180053 84 153 15.6 26.1 0.00 0.02 0.02 60 1009.7
20260906174550 83 148 16.5 23.5 0.00 0.02 0.02 63 1010.0
20260906173051 82 182 13.9 19.1 0.00 0.02 0.02 65 1010.2
20260906171540 80 150 13.9 19.1 0.00 0.02 0.02 67 1010.4
20260906170041 79 165 16.5 21.7 0.00 0.02 0.02 69 1010.7
20260906164533 78 154 12.2 19.1 0.00 0.02 0.02 73 1011.1
20260906163031 75 124 8.7 18.2 0.00 0.02 0.02 78 1011.2
20260906161532 76 111 9.6 16.5 0.00 0.02 0.02 78 1011.1
20260906160036 74 119 7.8 20.9 0.00 0.02 0.02 83 1011.1
20260906154538 73 128 8.7 16.5 0.00 0.02 0.02 84 1011.2
20260906153026 73 133 10.4 17.4 0.00 0.02 0.02 85 1011.2
20260906151523 72 100 7.0 13.0 0.00 0.02 0.02 88 1011.1
20260906150022 71 137 7.8 15.6 0.00 0.02 0.02 91 1011.1
20260906144518 70 152 7.8 15.6 0.00 0.02 0.02 93 1011.2
20260906143016 69 134 11.3 15.6 0.00 0.02 0.02 93 1010.9
20260906141513 69 132 13.0 20.9 0.00 0.02 0.02 93 1010.9
20260906140010 69 106 10.4 17.4 0.00 0.02 0.02 93 1011.1
20260906134507 69 128 7.0 15.6 0.00 0.02 0.02 93 1011.1
20260906133004 68 120 9.6 14.8 0.01 0.02 0.02 93 1010.8
20260906131605 68 157 5.2 8.7 0.01 0.02 0.02 93 1010.9
20260906130058 68 132 1.7 6.1 0.01 0.02 0.02 93 1010.4
20260906124559 68 96 4.3 8.7 0.01 0.02 0.02 93 1010.0
20260906123101 68 80 6.1 13.9 0.00 0.01 0.01 93 1009.9
20260906121555 68 103 1.7 6.1 0.00 0.01 0.01 93 1010.7
20260906120053 67 109 0.0 6.1 0.00 0.01 0.01 93 1010.8
20260906114553 67 101 2.6 7.0 0.00 0.01 0.01 93 1010.5
20260906113051 68 102 5.2 8.7 0.00 0.01 0.01 92 1010.6
20260906111550 68 85 3.5 7.0 0.00 0.01 0.01 92 1010.5
20260906110051 68 64 3.5 7.8 0.01 0.01 0.01 92 1010.5
20260906104545 68 42 4.3 7.0 0.01 0.01 0.01 91 1010.3
20260906103044 68 25 3.5 7.8 0.01 0.01 0.01 89 1010.0
20260906101542 69 17 5.2 11.3 0.01 0.01 0.01 87 1010.2
20260906100037 70 19 5.2 13.9 0.00 0.00 0.00 84 1009.6
20260906094535 73 45 7.0 17.4 0.00 0.00 0.00 77 1009.6
20260906093028 75 326 9.6 12.2 0.00 0.00 0.00 71 1009.1
20260906091530 76 247 3.5 8.7 0.00 0.00 0.00 68 1008.6
20260906090138 76 239 1.7 9.6 0.00 0.00 0.00 69 1008.4
20260906084527 76 204 9.6 11.3 0.00 0.00 0.00 66 1008.2
20260906083025 76 199 7.8 11.3 0.00 0.00 0.00 67 1008.2
20260906081533 76 194 8.7 12.2 0.00 0.00 0.00 66 1008.2
20260906080023 77 199 10.4 17.4 0.00 0.00 0.00 65 1008.2
20260906074521 77 360 11.3 14.8 0.00 0.00 0.00 64 1008.4
20260906073020 78 182 7.0 12.2 0.00 0.00 0.00 64 1008.5
20260906071520 78 182 10.4 15.6 0.00 0.00 0.00 63 1008.5
20260906070018 78 180 9.6 13.9 0.00 0.00 0.00 64 1008.5
20260906064516 77 174 10.4 13.9 0.00 0.00 0.00 65 1008.8
20260906063014 77 169 8.7 13.0 0.00 0.00 0.00 66 1008.9
20260906061514 76 360 7.0 10.4 0.00 0.00 0.00 67 1009.1
20260906060012 76 163 7.0 10.4 0.00 0.00 0.00 67 1008.8
20260906054510 76 175 6.1 7.8 0.00 0.00 0.00 68 1008.8
20260906053009 76 180 5.2 7.0 0.00 0.00 0.00 67 1008.7
20260906051508 76 162 6.1 10.4 0.00 0.00 0.00 67 1008.4
20260906050006 77 161 7.0 9.6 0.00 0.00 0.00 65 1008.3
20260906044502 78 161 4.3 8.7 0.00 0.00 0.00 63 1008.5
20260906043002 78 162 5.2 9.6 0.00 0.00 0.00 63 1008.6
20260906041501 78 169 7.0 10.4 0.00 0.00 0.00 62 1008.3
20260906040100 78 170 7.0 11.3 0.00 0.00 0.00 62 1008.4
20260906034600 78 166 8.7 11.3 0.00 0.00 0.00 62 1008.3
20260906033100 79 162 7.8 10.4 0.00 0.00 0.00 61 1008.2
20260906031559 79 160 7.8 13.0 0.00 0.00 0.00 60 1008.3
20260906030127 80 157 7.8 10.4 0.00 0.00 0.00 60 1008.1
20260906024602 80 160 7.8 13.0 0.00 0.00 0.00 59 1008.0
20260906023112 81 161 9.6 13.0 0.00 0.00 0.00 59 1007.8
20260906021610 82 168 10.4 13.9 0.00 0.00 0.00 58 1007.9
20260906020100 83 148 7.8 12.2 0.00 0.00 0.00 56 1007.6
20260906014559 83 153 7.8 14.8 0.00 0.00 0.00 55 1007.5
20260906014532 83 155 7.8 14.8 0.00 0.00 0.00 55 1007.5
20260906013055 84 160 8.7 13.9 0.00 0.00 0.00 54 1007.6
20260906011555 85 148 5.2 14.8 0.00 0.00 0.00 52 1007.2
20260906010053 86 160 13.0 19.1 0.00 0.00 0.00 50 1006.9
20260906004555 88 142 13.9 20.0 0.00 0.00 0.00 48 1006.5
20260906003103 89 151 14.8 25.2 0.00 0.00 0.00 46 1006.6
20260906001551 93 170 9.6 15.6 0.00 0.00 0.00 37 1006.2
20260906000051 94 179 13.9 16.5 0.00 0.00 0.00 36 1006.2
20260905234556 95 190 10.4 20.9 0.00 0.00 0.00 36 1006.2
20260905233050 95 196 11.3 20.9 0.00 0.00 0.00 35 1006.1
20260905231548 95 175 13.9 17.4 0.00 0.00 0.00 36 1006.0
20260905230052 95 159 13.9 21.7 0.00 0.00 0.00 37 1005.8
20260905224547 95 182 13.0 19.1 0.00 0.00 0.00 37 1005.8
20260905223047 96 152 11.3 16.5 0.00 0.00 0.00 37 1005.8
20260905221544 96 126 11.3 18.2 0.00 0.00 0.00 36 1005.8
20260905220040 96 360 13.0 19.1 0.00 0.00 0.00 37 1006.1
20260905214534 96 132 11.3 20.0 0.00 0.00 0.00 35 1006.2
20260905213030 96 165 15.6 22.6 0.00 0.00 0.00 35 1006.4
20260905211526 96 169 13.0 20.0 0.00 0.00 0.00 33 1006.6
20260905210026 96 153 16.5 21.7 0.00 0.00 0.00 35 1006.7
20260905204520 96 171 13.9 25.2 0.00 0.00 0.00 33 1007.0